Location: Kellogg
(38.0159°N, 90.0546°W)
Time: 14:49:01
(UTC+00:00)

Transit 2A - Pass Details

Date: 20 September 2024
Orbit: 590 x 960 km, 66.7° (Epoch: 07 October)

Event Time Altitude Azimuth Distance (km) Brightness Sun altitude
Rises 21:37:39 0° 165° (SSE) 3,359 9.4 26.5°
Reaches altitude 10° 21:40:38 10° 149° (SSE) 2,493 8.6 26.0°
Maximum altitude 21:44:47 20° 104° (ESE) 1,934 7.8 25.2°
Drops below altitude 10° 21:49:08 10° 58° (ENE) 2,643 8.3 24.4°
Sets 21:52:23 0° 43° (NE) 3,624 9.0 23.8°
